Weather Roundup
Issued by NWS

Home | Current Version | Previous Version | Text Only | Print | Product List | Glossary On
Versions: 1 2 3 4 5 6 7 8 9 10 11 12 13 14 15 16 17 18 19 20 21 22 23 24 25 26 27 28 29 30 31 32 33 34 35 36 37 38 39 40 41 42 43 44 45 46 47 48 49 50
000
NZUS93 KARX 201210
HRRWXR

CURRENT HOURLY OBSERVATIONS ACROSS
MUCH OF THE UPPER MISSISSIPPI VALLEY
NATIONAL WEATHER SERVICE LA CROSSE WI
700 AM CDT MON OCT 20 2014


...SOUTHEAST MINNESOTA...


CITY           SKY/WX    TMP DP  RH WIND       PRES   REMARKS
ROCHESTER      CLEAR     41  38  89 W7        29.96R
ROCHESTER/MAYO FAIR      46  39  77 W7        29.95R
WINONA         CLEAR     43  41  93 CALM      29.93R
AUSTIN         CLEAR     43  39  87 NW5       29.96R
ALBERT LEA     CLEAR     43  39  87 W3        29.97R
DODGE CENTER   PTCLDY    45  41  87 W8        29.95S
PRESTON        CLEAR     42  39  89 NW7       29.94S
OWATONNA       CLEAR     37  36  93 CALM      29.97R
FARIBAULT      CLEAR     37  36  93 CALM      29.97R
$$

...ELSEWHERE IN MINNESOTA...


CITY           SKY/WX    TMP DP  RH WIND       PRES   REMARKS
MINNEAPOLIS    CLEAR     48  41  76 NW5       29.95R
INTNL FALLS    CLOUDY    42  40  92 NW6       29.95R
DULUTH         PTCLDY    43  39  86 NW7       29.91R
RED WING       CLEAR     43  39  87 W5        29.93R
REDWOOD FALLS  CLEAR     41  37  86 W8        30.00R
MANKATO        CLEAR     45  36  70 W8        29.98R
WORTHINGTON    CLEAR     41  36  81 W8        30.04R
FAIRMONT       CLEAR     45  36  70 NW8       30.00R
$$

...SOUTHWEST WISCONSIN...


CITY           SKY/WX    TMP DP  RH WIND       PRES   REMARKS
LA CROSSE      CLEAR     43  41  93 NE3       29.91R
PRAIRIE DU CHI CLEAR     44  40  84 NW6       29.90R
BOSCOBEL       CLEAR     44  41  89 CALM      29.90R
LONE ROCK      CLEAR     54  42  64 NW6       29.87R
PLATTEVILLE    CLEAR     47  43  87 CALM      29.88R
FORT MC COY    CLEAR     46  40  80 W5        29.91R
CAMP DOUGLAS   CLEAR     41  41 100 W8        29.88R
VIROQUA        FAIR      46  41  82 NW9       29.90R
WIS DELLS      CLEAR     47  41  79 NW7       29.86R
$$

...ELSEWHERE IN WISCONSIN...


CITY           SKY/WX    TMP DP  RH WIND       PRES   REMARKS
MILWAUKEE      PTCLDY    48  42  80 W7        29.78R
MADISON        PTCLDY    48  43  82 NW8       29.83R
GREEN BAY      CLOUDY    45  43  93 NW7       29.80R
EAU CLAIRE     CLEAR     42  39  89 W5        29.90R
BLACK RVR FLS  FAIR      35  35 100 CALM      29.90R
MEDFORD        MOCLDY    40  39  97 NW6       29.87R
WAUSAU         CLEAR     43  40  89 NW5       29.83R
WIS RAPIDS     CLEAR     45  41  86 NW6       29.87R
MARSHFIELD     CLEAR     43  40  89 NW9       29.86R
RICE LAKE      CLEAR     42  39  89 W6        29.92R
$$

...NORTHEAST IOWA...


CITY           SKY/WX    TMP DP  RH WIND       PRES   REMARKS
DECORAH        CLEAR     46  43  87 W3        29.92S
MASON CITY     CLEAR     40  38  93 W9        29.99R WCI  34
CHARLES CITY   CLEAR     43  39  87 NW6       29.96R
OELWEIN        CLEAR     43  41  93 NW7       29.95R
$$

...ELSEWHERE IN IOWA...


CITY           SKY/WX    TMP DP  RH WIND       PRES   REMARKS
DES MOINES     CLEAR     48  42  80 NW7       30.00R
IOWA CITY      CLEAR     48  43  82 NW10      29.94R
FORT DODGE     CLEAR     39  34  81 CALM      30.02R
$$

...NORTHERN ILLINOIS...


CITY           SKY/WX    TMP DP  RH WIND       PRES   REMARKS
CHICAGO-OHARE  PTCLDY    47  43  86 W8        29.80S
CHICAGO-MIDWAY PTCLDY    50  45  83 SW9       29.81S
MOLINE         CLEAR     50  43  77 NW15      29.89R
ROCKFORD       PTCLDY    45  41  86 W7        29.84R
PEORIA         CLEAR     49  45  86 SW6       29.88S
$$

NOTE: "FAIR" INDICATES FEW OR NO CLOUDS BELOW 12,000 FEET WITH NO
SIGNIFICANT WEATHER AND/OR OBSTRUCTIONS TO VISIBILITY. WIND
SPEEDS ARE IN MILES-PER-HOUR.



USA.gov is the U.S. government's official web portal to all federal, state and local government web resources and services.